Weather History for Beatrice, NE

Change the Weather History Date:

Sunday, January 4, 1998

  Actual Average Record
Temperature  
Mean Temperature 22 °F -  
Max Temperature 26 °F 26 °F 59 °F (2012)
Min Temperature 17 °F 9 °F -15 °F (1959)
Degree Days  
Heating Degree Days 44    
Moisture  
Dew Point 17 °F    
Average Humidity 83    
Maximum Humidity 93    
Minimum Humidity 73    
Precipitation  
Precipitation 0.02 in - - ()
Sea Level Pressure  
Sea Level Pressure 30.05 in    
Wind  
Wind Speed 7 mph (North)    
Max Wind Speed 16 mph    
Max Gust Speed 16 mph    
Visibility 9 miles    
Events      
Averages and records for this station are not official NWS values.
T = Trace of Precipitation, MM = Missing Value Source: NWS Daily Summary

Daily Weather History Graph

Daily Weather History Graph

Search for Another Location

Airport:

Trip Planner

Search our weather history database for the weather conditions in past years. The results will help you decide how hot, cold, wet, or windy it might be!

Date:

Astronomy

Jan. 04, 1998 Rise Set
Actual Time 7:50 AM CST 5:14 PM CST
Civil Twilight 7:19 AM CST 5:44 PM CST
Nautical Twilight 6:45 AM CST 6:18 PM CST
Astronomical Twilight 6:12 AM CST 6:51 PM CST
Moon 11:46 AM CST (1/4) No Moon Set
Length of Visible Light 10h 25m
Length of Day
9h 24m
Waxing Crescent, 40% of the Moon is Illuminated
Jan 4
Waxing Crescent
Jan 5
First Quarter
Jan 12
Full
Jan 20
Last Quarter
Jan 28
New

Hourly Weather History & Observations

Time (CST) Temp. Windchill Dew Point Humidity Pressure Visibility Wind Dir Wind Speed Gust Speed Precip Events Conditions
12:10 AM 19.4 °F 6.0 °F 15.8 °F 86% 30.20 in 10.0 mi North 13.8 mph - N/A   Overcast
12:28 AM 19.4 °F 7.2 °F 12.2 °F 74% 30.19 in 10.0 mi North 11.5 mph - N/A   Mostly Cloudy
12:52 AM 19.4 °F 5.0 °F 14.0 °F 80% 30.16 in 10.0 mi North 16.1 mph - N/A   Overcast
1:28 AM 17.6 °F 6.4 °F 10.4 °F 73% 30.18 in 10.0 mi NNE 9.2 mph - N/A   Overcast
2:10 AM 17.6 °F 3.7 °F 10.4 °F 73% 30.15 in 10.0 mi NNE 13.8 mph - N/A   Overcast
2:28 AM 17.6 °F 6.4 °F 12.2 °F 79% 30.15 in 10.0 mi NNE 9.2 mph - N/A   Overcast
2:48 AM 17.6 °F 6.4 °F 12.2 °F 79% 30.14 in 10.0 mi NNE 9.2 mph 16.1 mph N/A   Overcast
3:10 AM 17.6 °F 7.3 °F 10.4 °F 73% 30.15 in 10.0 mi NNE 8.1 mph - N/A   Overcast
3:30 AM 17.6 °F 6.4 °F 12.2 °F 79% 30.13 in 10.0 mi NNE 9.2 mph - N/A   Overcast
3:48 AM 17.6 °F 12.3 °F 12.2 °F 79% 30.13 in 10.0 mi NNE 3.5 mph - N/A   Overcast
4:29 AM 17.6 °F 10.7 °F 10.4 °F 73% 30.13 in 10.0 mi NNE 4.6 mph - N/A   Overcast
4:48 AM 17.6 °F 8.2 °F 10.4 °F 73% 30.12 in 10.0 mi North 6.9 mph - N/A   Overcast
5:10 AM 17.6 °F 8.2 °F 10.4 °F 73% 30.12 in 10.0 mi North 6.9 mph - N/A   Overcast
6:48 AM 19.4 °F 10.4 °F 14.0 °F 80% 30.10 in 10.0 mi NNE 6.9 mph - N/A   Overcast
7:12 AM 19.4 °F 7.9 °F 15.8 °F 86% 30.09 in 10.0 mi North 10.4 mph - N/A   Overcast
7:30 AM 19.4 °F 7.9 °F 14.0 °F 80% 30.09 in 10.0 mi North 10.4 mph - N/A   Overcast
9:32 AM 19.4 °F 8.6 °F 15.8 °F 86% 30.09 in 10.0 mi NNW 9.2 mph - N/A   Overcast
10:08 AM 19.4 °F 7.2 °F 17.6 °F 93% 30.07 in 10.0 mi NNW 11.5 mph - N/A   Overcast
10:29 AM 19.4 °F 6.6 °F 17.6 °F 93% 30.06 in 3.5 mi North 12.7 mph - 0.01 in   Overcast
10:50 AM 19.4 °F 9.5 °F 17.6 °F 93% 30.09 in 2.0 mi NW 8.1 mph - 0.01 in   Overcast
11:10 AM 19.4 °F 10.4 °F 17.6 °F 93% 30.09 in 2.0 mi NW 6.9 mph - N/A   Overcast
11:31 AM 19.4 °F 12.8 °F 17.6 °F 93% 30.10 in 2.5 mi West 4.6 mph - N/A   Overcast
11:51 AM 21.2 °F 12.6 °F 17.6 °F 86% 30.07 in 1.2 mi NW 6.9 mph - 0.01 in   Overcast
12:29 PM 21.2 °F 12.6 °F 17.6 °F 86% 30.02 in 10.0 mi NNW 6.9 mph - N/A   Mostly Cloudy
12:50 PM 21.2 °F 14.9 °F 19.4 °F 93% 30.03 in 10.0 mi WNW 4.6 mph - N/A   Mostly Cloudy
1:11 PM 21.2 °F - 17.6 °F 86% 30.02 in 10.0 mi Calm Calm - N/A   Overcast
1:33 PM 21.2 °F - 17.6 °F 86% 30.01 in 10.0 mi Calm Calm - N/A   Overcast
1:49 PM 23.0 °F - 17.6 °F 80% 30.00 in 10.0 mi Calm Calm - N/A   Overcast
2:10 PM 21.2 °F - 19.4 °F 93% 29.98 in 4.0 mi Calm Calm - N/A   Overcast
2:31 PM 23.0 °F - 21.2 °F 93% 29.98 in 10.0 mi Calm Calm - N/A   Overcast
2:49 PM 23.0 °F - 19.4 °F 86% 29.99 in 10.0 mi Calm Calm - N/A   Overcast
3:10 PM 24.8 °F - 19.4 °F 80% 29.98 in 10.0 mi Calm Calm - N/A   Overcast
3:29 PM 24.8 °F - 19.4 °F 80% 29.98 in 10.0 mi Calm Calm - N/A   Overcast
4:14 PM 24.8 °F - 19.4 °F 80% 30.00 in 10.0 mi Calm Calm - N/A   Overcast
4:31 PM 24.8 °F - 19.4 °F 80% 29.99 in 10.0 mi Calm Calm - N/A   Overcast
4:50 PM 24.8 °F - 19.4 °F 80% 29.99 in 10.0 mi Calm Calm - N/A   Overcast
5:12 PM 24.8 °F - 19.4 °F 80% 29.98 in 10.0 mi Calm Calm - N/A   Overcast
5:30 PM 24.8 °F - 21.2 °F 86% 29.99 in 10.0 mi Calm Calm - N/A   Overcast
5:52 PM 24.8 °F - 19.4 °F 80% 29.99 in 10.0 mi Calm Calm - N/A   Overcast
6:11 PM 24.8 °F - 19.4 °F 80% 29.99 in 10.0 mi Calm Calm - N/A   Overcast
6:32 PM 24.8 °F - 19.4 °F 80% 29.99 in 10.0 mi Calm Calm - N/A   Overcast
6:49 PM 24.8 °F - 19.4 °F 80% 30.00 in 10.0 mi Calm Calm - N/A   Overcast
7:11 PM 24.8 °F - 19.4 °F 80% 30.00 in 10.0 mi Calm Calm - N/A   Overcast
7:29 PM 24.8 °F - 19.4 °F 80% 30.00 in 10.0 mi Calm Calm - N/A   Overcast
7:52 PM 24.8 °F - 21.2 °F 86% 30.00 in 10.0 mi Calm Calm - N/A   Overcast
8:09 PM 24.8 °F - 19.4 °F 80% 30.00 in 10.0 mi Calm Calm - N/A   Mostly Cloudy
8:32 PM 24.8 °F - 21.2 °F 86% 30.00 in 10.0 mi Calm Calm - N/A   Overcast
9:09 PM 24.8 °F - 21.2 °F 86% 30.00 in 10.0 mi Calm Calm - N/A   Overcast
10:12 PM 24.8 °F - 21.2 °F 86% 30.00 in 10.0 mi Calm Calm - N/A   Overcast
10:29 PM 26.6 °F - 21.2 °F 80% 30.00 in 10.0 mi Calm Calm - N/A   Overcast
10:50 PM 26.6 °F - 21.2 °F 80% 30.00 in 10.0 mi Calm Calm - N/A   Overcast
11:09 PM 26.6 °F - 23.0 °F 86% 30.00 in 10.0 mi Calm Calm - N/A   Overcast
11:50 PM 26.6 °F - 23.0 °F 86% 29.98 in 10.0 mi Calm Calm - N/A   Overcast